カタログに戻る

COSMOS 1261 DEB

運用中HEO
NORAD 12893·DEBRIS·🇷🇺 Russia

打ち上げ Mar 31, 1981 から Plesetsk Cosmodrome

Loading…

次のパス (今後24時間)

TLE

最新Source: Space-Track

元期: Sep 13, 2026, 10:00 UTC

1 12893U 81031F   26256.41725401  .00000666  00000-0  00000-0 0  9999
2 12893  63.9435 334.4780 7167667  25.3880 356.9999  2.01094892313888

AllMySatでCOSMOS 1261 DEBをリアルタイム追跡

Download on the App Store